Sigfox identifier Datetime Temperature Humidity SNR
003BC019 2018-10-09 09:23:39 21.2 36 16.7
003BC019 2018-10-08 17:32:05 21.2 36 16.8
003BC019 2018-10-08 14:08:11 21 36 16.7
003BC019 2018-10-08 08:28:10 21 37 16.7
003BC019 2018-10-08 06:12:12 21 37 8.7
003BC019 2018-10-08 03:56:20 21 37 8.7
003BC019 2018-10-08 02:48:24 21 37 8.7
003BC019 2018-10-08 01:40:23 21 37 8.7
003BC019 2018-10-07 23:24:31 21 37 8.7
003BC019 2018-10-07 22:16:33 21 38 8.6
003BC019 2018-10-07 21:08:34 21 38 8.9
003BC019 2018-10-07 20:00:39 21 38 9.3
003BC019 2018-10-07 18:52:49 21 38 9.3
003BC019 2018-10-07 17:44:45 21 38 9.3
003BC019 2018-10-07 15:28:53 21.1 38 9.4
003BC019 2018-10-07 13:12:51 21 38 9.5
003BC019 2018-10-07 12:04:48 21.1 38 9.9
003BC019 2018-10-07 10:56:41 21.1 38 9.7
003BC019 2018-10-07 09:48:43 21.2 38 9.7
003BC019 2018-10-07 08:40:44 21.2 38 9.9
003BC019 2018-10-07 07:32:44 21.2 38 9.8
003BC019 2018-10-07 06:24:47 21.2 38 9.8
003BC019 2018-10-07 05:16:47 21.2 38 10.4
003BC019 2018-10-07 04:08:49 21.2 38 10.4
003BC019 2018-10-07 03:00:50 21.2 38 10.4
003BC019 2018-10-07 01:52:44 21.2 38 10.5
003BC019 2018-10-07 00:44:49 21.2 38 10.5
003BC019 2018-10-06 23:36:41 21.2 38 10.6
003BC019 2018-10-06 22:28:38 21.3 38 10.7
003BC019 2018-10-06 17:56:22 21.4 38 10.6
003BC019 2018-10-06 15:40:26 21.3 38 12
003BC019 2018-10-06 13:24:25 21.4 38 14
003BC019 2018-10-06 08:52:25 21.4 38 14
003BC019 2018-10-05 19:16:37 21.7 38 14.1
003BC019 2018-10-05 12:28:30 21.3 36 14.1
003BC019 2018-10-05 07:56:20 21 31 14
003BC019 2018-10-05 06:48:19 21 30 13.9
003BC019 2018-10-05 05:40:11 21 30 13.8
003BC019 2018-10-05 02:15:58 21 31 13.8
003BC019 2018-10-05 01:07:53 21.1 31 13.8
003BC019 2018-10-04 23:59:48 21.1 31 13.7
003BC019 2018-10-04 22:51:37 21.1 31 13.6
003BC019 2018-10-04 21:43:32 21.1 31 13.7
003BC019 2018-10-04 20:35:29 21 30 13.9
003BC019 2018-10-04 18:19:22 21 30 14
003BC019 2018-10-04 16:03:17 20.8 31 14.1
003BC019 2018-10-04 13:47:14 20.6 32 14.3
003BC019 2018-10-04 11:31:07 20.4 30 14.2
003BC019 2018-10-04 09:14:56 20.2 31 14.4
003BC019 2018-10-04 08:06:58 20.2 31 14.5
003BC019 2018-10-04 05:50:49 20.2 36 14.6
003BC019 2018-10-04 04:42:47 20.2 37 14.9
003BC019 2018-10-04 02:26:41 20.2 38 15.1
003BC019 2018-10-04 01:18:40 20.4 38 15.2
003BC019 2018-10-03 20:46:29 20.4 41 15.5
003BC019 2018-10-03 17:22:15 20.4 42 14.6
003BC019 2018-10-03 16:14:10 20.4 44 8.7
003BC019 2018-10-03 15:06:09 20.4 45 8.8
003BC019 2018-10-03 13:58:08 20.4 43 7.6
003BC019 2018-10-03 12:50:06 20.4 42 7.7
003BC019 2018-10-03 06:01:47 20.2 40 8
003BC019 2018-10-03 02:37:32 20.4 41 8.2
003BC019 2018-10-03 01:29:29 20.4 41 8.7
003BC019 2018-10-03 00:21:18 20.4 41 9.2
003BC019 2018-10-02 18:40:52 20.4 40 10.2
003BC019 2018-10-02 17:32:41 20.5 41 10.5
003BC019 2018-10-02 16:24:35 20.6 41 0